Theta_e
352 353 353 352 353 352 351 352 354 355 354 353 352 351 351 352 353 353 353 354 355 355 354 354 355 356 356 356 356 356 356 355 357 358 359 359 357 357 357 357 357 355 354 354 355 357 357 355 355 355 356 356 355 355 354 355 356 356 356 356 355 355 354 354 354 354 353 352 351 351 350 349 349 348 349 350 348 347 347 349 350 351 351 351 352
353 353 353 353 353 353 352 351 351 354 354 353 352 351 351 352 352 352 353 353 354 354 354 354 354 354 355 356 356 356 356 355 356 357 357 357 357 356 356 357 357 356 355 354 353 354 355 354 353 353 355 355 354 354 355 354 354 354 354 355 354 354 354 354 354 354 354 352 351 351 350 350 350 349 350 351 350 348 348 350 353 353 352 352 353
353 353 354 354 354 354 353 352 351 353 354 354 353 353 352 353 353 353 354 354 353 353 354 354 355 354 354 356 355 356 356 356 356 356 357 357 356 356 356 356 356 355 355 354 353 354 355 355 354 353 353 354 354 354 355 355 354 353 353 353 353 353 352 353 353 354 354 353 351 350 350 350 350 350 351 351 351 350 348 349 350 349 348 348 348
354 354 354 355 354 355 354 352 351 352 353 353 353 353 353 354 355 355 355 355 353 353 354 354 354 354 354 355 355 355 355 356 356 357 357 357 357 356 355 356 356 355 353 353 352 353 354 355 355 353 353 353 353 353 353 354 354 354 354 353 353 353 353 353 353 352 353 352 351 350 350 351 350 350 350 350 348 346 346 348 346 344 343 342 343
356 355 355 356 355 355 355 353 351 351 352 353 352 353 354 354 355 355 355 355 354 353 353 353 353 353 353 353 354 354 355 355 356 357 357 357 357 356 356 355 354 354 353 353 352 352 352 353 353 354 354 354 353 352 351 352 352 352 353 353 353 353 352 353 353 352 351 351 351 350 350 351 350 349 348 349 346 342 343 344 343 340 338 336 337
358 357 356 357 356 356 355 354 354 353 353 352 352 353 354 354 354 354 354 354 354 353 352 351 351 350 351 351 352 353 354 354 355 355 355 355 355 355 355 355 355 354 353 352 352 352 351 351 351 351 353 354 354 353 351 351 351 351 351 351 352 352 350 350 350 349 349 350 350 351 351 350 350 347 344 345 347 346 345 344 341 339 338 337 336
357 358 357 358 357 356 356 355 355 354 354 354 353 353 355 355 355 354 354 354 354 354 352 351 350 350 350 350 350 351 352 353 354 354 355 355 354 354 354 354 355 354 354 352 352 352 351 351 351 351 352 352 353 353 352 352 352 351 351 351 350 350 350 349 349 348 349 349 350 351 350 349 349 346 343 343 347 348 348 347 345 342 341 342 341
356 357 357 357 357 357 356 356 355 355 354 354 354 354 355 355 355 355 355 354 354 354 352 351 351 350 350 350 350 350 350 351 351 352 353 354 354 354 354 354 354 354 353 353 352 351 351 351 352 352 352 352 352 352 352 352 353 352 351 351 350 350 350 349 349 349 349 349 350 350 349 348 347 345 343 345 345 345 345 347 348 346 344 346 346
355 355 354 355 355 355 355 356 355 355 355 354 354 354 354 354 355 354 353 352 351 351 351 350 350 350 350 350 349 350 350 350 350 350 350 351 351 352 353 354 354 353 353 353 352 352 351 351 351 352 352 352 352 351 351 351 352 352 352 351 350 350 349 349 349 348 348 348 348 348 347 347 346 345 344 344 345 344 345 347 349 347 346 348 348
352 351 350 351 351 350 351 353 354 354 354 354 354 354 354 354 354 354 353 351 350 348 348 348 349 349 349 349 349 349 349 349 349 348 348 349 348 349 350 351 352 353 353 353 352 351 351 350 351 351 352 352 352 352 352 351 351 351 351 350 349 349 349 349 349 348 347 347 347 346 346 346 345 345 345 344 344 345 346 348 348 347 347 349 349
350 349 349 349 348 348 349 351 352 352 353 353 353 353 354 354 354 354 353 352 351 350 348 347 347 347 348 349 349 349 349 349 349 348 348 348 348 348 348 349 350 350 351 352 351 351 350 349 349 349 351 351 351 352 352 352 352 351 351 351 350 349 349 349 349 349 348 347 346 346 346 346 346 345 346 346 345 346 347 347 348 348 349 350 350
348 349 350 350 350 350 351 351 351 351 351 351 352 352 352 351 352 352 353 353 352 352 350 349 348 347 347 348 350 351 350 349 349 348 348 347 347 348 348 349 350 350 350 350 350 350 349 349 348 348 349 349 349 349 349 350 351 352 352 351 350 349 349 349 349 348 347 346 347 346 346 346 346 345 345 345 345 346 347 348 348 348 349 349 349
344 345 347 349 350 351 351 351 350 351 352 352 352 351 351 351 351 351 352 352 352 352 351 351 350 348 347 348 350 352 352 351 349 348 347 347 347 348 349 350 350 350 351 351 351 350 350 350 350 350 349 349 349 349 348 347 347 348 349 350 350 349 348 348 348 346 344 345 346 345 344 344 344 344 342 343 345 347 347 348 348 348 348 347 348
340 341 343 344 345 346 348 349 350 350 351 351 352 353 353 353 353 353 353 353 353 352 352 351 351 350 349 348 349 352 353 353 351 349 348 347 346 347 348 349 350 350 350 351 351 350 350 350 351 351 350 351 351 351 351 349 348 347 346 347 347 346 347 347 346 345 344 344 344 343 342 342 343 343 342 343 345 346 347 347 347 347 347 346 347
337 339 340 340 341 342 344 345 346 347 347 347 348 349 351 352 352 352 353 354 354 354 353 353 352 351 352 351 351 352 353 354 353 351 349 347 347 347 348 349 350 350 350 350 350 350 350 351 351 351 351 351 351 351 351 351 351 350 348 347 347 346 345 345 344 343 343 343 343 343 342 342 342 343 343 345 345 345 345 346 347 347 346 345 348
331 333 336 336 337 340 341 340 341 342 343 344 345 344 344 345 346 348 350 352 354 355 355 354 354 354 354 353 353 353 353 354 353 353 352 351 350 349 349 349 349 350 350 350 350 350 350 350 351 351 351 350 350 350 350 351 351 351 350 349 348 347 346 345 343 343 343 343 343 343 343 343 343 344 345 346 346 346 347 346 347 347 346 345 348
327 329 332 332 332 333 334 334 335 336 337 339 340 339 340 342 343 344 346 348 351 354 355 355 354 355 354 354 354 354 354 354 354 353 353 353 353 352 352 352 352 351 351 351 351 352 352 352 352 352 351 351 351 352 351 351 351 350 350 349 349 348 348 347 346 345 344 343 343 343 344 344 346 346 347 347 347 348 348 346 348 349 347 346 349
326 328 330 330 327 326 327 328 330 331 330 329 329 331 334 337 340 342 343 344 347 351 353 353 353 354 354 355 355 355 354 354 354 354 354 353 353 353 353 353 353 353 353 353 353 353 353 354 354 354 353 354 354 353 352 351 349 349 348 348 347 347 347 347 347 346 345 343 343 344 346 348 349 349 349 349 349 350 350 349 351 351 349 349 351
323 325 327 326 324 324 325 325 326 326 324 323 323 325 327 330 334 337 340 342 344 346 349 350 351 351 352 353 355 355 356 356 354 354 354 354 353 354 353 354 353 353 353 353 353 353 353 354 354 353 353 353 353 353 352 351 349 348 348 346 345 346 347 346 346 345 345 345 346 348 349 351 351 352 351 351 351 351 351 352 352 352 351 352 352
320 322 324 325 324 323 323 323 323 322 322 322 322 324 325 326 327 328 331 336 339 341 345 347 348 349 349 350 350 351 352 353 353 352 352 352 352 352 353 353 353 353 353 353 352 353 353 353 353 353 353 353 353 353 353 353 352 350 349 347 345 346 346 346 346 346 347 348 349 351 351 351 352 353 352 352 352 352 352 352 353 353 353 353 353
318 319 321 323 323 323 322 320 320 321 322 322 322 325 329 331 331 330 328 328 331 336 341 344 346 349 349 346 346 349 351 350 350 351 352 352 352 352 352 352 352 352 352 351 351 352 352 353 353 353 353 353 352 353 353 354 353 351 351 349 348 348 348 348 348 349 350 351 351 352 352 352 353 353 353 353 354 354 354 354 354 354 354 354 354
317 316 317 318 319 320 320 320 320 322 323 323 325 327 329 330 333 335 335 334 337 342 345 346 348 348 342 334 334 340 342 341 344 349 352 353 353 353 353 353 352 352 352 351 352 352 352 352 351 351 350 351 351 351 352 352 352 352 352 352 351 351 350 350 351 351 351 352 353 354 354 354 355 355 355 355 356 357 357 356 355 356 355 356 356
316 315 315 316 318 319 320 322 323 324 324 324 326 327 327 326 327 330 332 335 340 342 342 342 341 337 329 323 324 326 328 331 339 344 346 345 346 348 349 351 352 352 351 352 351 350 348 348 347 346 347 348 349 349 349 349 350 351 352 353 352 352 352 351 351 350 350 351 352 353 354 355 355 356 356 357 358 359 358 358 358 357 356 356 356
316 316 317 318 318 318 320 322 324 323 323 323 324 324 325 325 326 326 326 327 329 330 329 329 328 326 325 325 326 326 325 328 332 333 332 331 333 336 340 346 349 349 349 348 345 343 342 341 340 339 339 340 341 343 344 346 347 348 349 350 352 353 352 351 351 350 350 350 351 352 354 355 355 355 357 358 359 359 358 358 358 358 357 357 356
316 317 317 317 317 317 318 320 321 321 321 321 322 322 324 325 325 325 325 326 326 327 327 326 326 326 326 327 328 328 328 327 324 323 324 327 327 328 332 336 338 339 339 338 337 336 336 337 337 337 336 336 335 336 338 341 343 343 342 343 347 352 354 352 350 350 350 351 351 351 353 354 355 356 356 356 357 356 356 357 357 357 356 356 355
315 315 315 316 316 317 317 319 320 320 319 319 319 320 321 323 323 323 324 325 326 327 326 325 325 325 325 325 326 327 328 328 325 323 324 327 328 328 329 330 331 331 332 333 334 334 334 334 335 336 336 336 336 336 336 337 338 339 339 339 343 350 353 351 347 348 351 352 351 351 353 355 356 355 354 353 353 353 354 354 355 355 354 354 354
314 314 314 315 315 315 316 318 319 318 317 317 317 317 318 320 320 321 322 323 324 324 324 324 324 323 323 323 323 324 325 327 326 325 325 327 329 329 330 329 329 329 330 332 332 333 333 335 336 337 338 339 340 341 341 342 342 343 343 342 344 348 351 349 347 349 351 351 350 350 352 353 353 352 352 351 351 352 352 352 353 353 353 354 353
314 314 314 314 314 315 315 316 316 316 316 316 316 316 317 317 318 319 321 322 323 323 323 323 323 323 323 323 324 325 325 326 326 326 326 327 328 329 328 327 328 329 330 331 332 335 337 339 340 342 343 344 345 345 346 346 347 347 346 346 346 348 350 350 350 351 351 351 350 350 351 351 351 350 350 350 350 351 352 351 352 352 353 353 353
313 314 314 314 314 314 314 315 315 315 316 316 317 317 317 317 318 319 320 322 323 322 322 323 324 324 323 324 325 326 326 326 326 326 326 326 326 325 325 325 327 329 331 332 335 338 340 341 342 342 344 345 345 345 346 346 347 347 348 347 348 348 350 351 351 352 352 352 352 352 352 351 350 349 349 349 350 351 351 352 352 352 353 353 352
314 314 315 315 315 316 316 316 316 316 316 316 317 317 317 318 319 319 319 320 321 320 321 322 323 324 324 324 324 325 324 324 323 323 323 323 323 323 323 324 326 328 332 334 334 334 335 337 338 340 342 342 342 343 344 345 346 346 347 348 348 348 349 350 351 352 353 352 352 351 351 350 349 348 348 348 349 351 351 351 352 352 352 353 353
313 313 315 316 317 317 317 317 316 316 316 316 316 316 316 317 317 318 318 318 319 319 319 320 322 324 324 324 324 323 322 321 321 322 322 323 323 323 323 324 325 329 332 332 329 328 332 335 337 339 340 341 341 342 343 344 345 346 347 348 348 349 350 351 351 352 353 352 352 351 351 350 349 349 349 349 350 351 351 351 352 352 352 353 353
311 312 313 314 315 316 317 317 317 316 316 316 315 315 315 315 316 316 316 317 317 318 318 319 320 322 323 324 323 322 321 321 322 322 323 324 326 325 324 325 327 330 331 329 326 328 332 335 336 337 338 339 339 338 339 340 340 341 342 343 345 345 346 347 349 350 351 352 351 351 351 350 350 350 349 350 350 350 351 351 351 351 351 352 352
309 310 311 312 314 315 316 316 316 316 316 316 316 316 316 315 315 315 315 316 316 316 317 318 319 320 321 322 322 322 323 323 323 322 321 322 326 329 329 328 330 331 330 328 327 329 331 334 334 334 334 332 331 331 331 331 332 333 334 336 336 337 338 339 341 344 347 349 350 350 350 350 350 350 350 350 350 351 351 351 351 351 351 351 351
307 308 310 311 312 314 314 314 314 314 315 315 316 317 317 317 317 316 316 317 317 317 317 318 318 318 318 319 320 322 323 323 322 321 319 319 324 330 332 330 330 329 328 328 328 328 328 328 328 327 325 324 323 323 323 324 325 326 328 330 331 332 332 334 335 337 341 344 346 347 348 349 349 350 350 350 350 350 351 351 351 351 351 351 351
305 307 309 310 311 312 313 312 312 312 313 314 315 316 316 317 317 317 317 317 318 318 318 319 319 319 319 319 319 320 322 322 320 320 320 319 321 327 330 329 328 326 326 326 326 325 323 323 322 320 319 318 318 318 318 318 319 320 323 325 327 328 329 330 331 333 335 337 340 342 344 346 348 349 349 349 349 349 350 350 350 350 351 351 351
304 305 306 308 310 310 311 311 310 310 311 313 314 314 314 316 317 318 318 318 318 318 319 319 319 319 319 320 320 320 321 321 320 319 319 319 321 325 327 327 325 325 324 324 323 322 321 320 319 318 317 316 316 316 316 316 316 317 319 321 323 325 325 327 328 329 330 333 336 339 341 343 346 348 348 348 348 348 349 349 349 349 349 349 349
303 304 305 307 308 308 309 309 309 309 311 312 313 312 314 316 317 317 317 317 317 318 318 319 319 319 319 319 320 320 320 321 321 320 320 320 322 325 325 324 323 323 323 322 321 320 319 318 317 316 316 315 315 315 315 315 315 315 316 318 320 321 322 323 324 326 328 330 332 334 338 341 344 346 347 347 347 348 349 349 348 348 348 348 348
303 304 305 306 307 308 308 308 308 309 310 311 311 312 314 316 317 316 316 316 317 317 318 318 318 319 318 318 318 318 319 320 320 321 322 324 325 325 324 323 322 322 322 321 320 320 319 318 317 316 315 314 314 314 314 314 315 315 316 317 318 319 319 320 321 323 325 327 328 330 333 337 341 344 345 345 345 346 346 346 347 347 348 348 349
304 304 305 306 307 307 307 307 308 310 310 310 311 312 313 314 314 314 315 315 316 316 317 317 317 318 317 316 316 317 318 319 319 320 322 324 324 324 323 322 322 322 321 320 320 319 319 318 317 316 315 314 314 314 313 314 314 315 315 316 317 318 318 319 319 320 322 324 325 327 329 332 336 339 340 340 340 341 341 341 342 344 346 347 348
304 304 304 305 306 306 306 307 309 309 309 310 311 311 311 311 311 312 313 313 314 315 316 316 317 316 316 315 315 316 318 318 319 319 321 322 323 322 322 321 321 321 321 320 319 318 317 317 315 315 314 314 313 313 313 313 312 313 314 315 316 317 318 318 318 318 319 321 322 324 325 327 329 331 332 333 334 335 335 336 337 339 341 344 346
303 303 304 304 304 304 305 307 308 308 308 309 309 309 308 308 309 310 311 312 313 314 314 315 315 315 314 314 314 315 316 317 317 318 320 321 321 322 321 321 321 321 320 319 318 317 316 315 314 313 313 313 313 313 312 311 311 311 312 312 313 315 317 317 316 316 316 318 319 320 321 322 323 324 325 326 327 328 329 330 331 333 335 338 340
302 302 302 302 303 303 304 305 306 306 306 306 306 306 307 308 309 309 310 310 310 311 312 312 313 313 313 313 313 314 314 315 315 317 319 320 321 321 321 321 321 320 319 318 317 316 315 314 313 312 312 312 312 311 311 311 310 310 309 310 310 311 313 315 314 314 314 315 315 316 316 316 316 317 318 320 321 322 323 323 324 325 327 329 332
301 301 301 301 301 302 302 303 303 303 304 304 305 305 306 307 307 307 307 307 308 308 309 310 310 311 311 312 312 313 313 312 313 314 316 318 320 321 321 320 319 319 318 318 316 315 313 313 312 312 311 310 310 309 309 309 309 308 308 308 308 309 310 311 312 312 312 312 313 313 313 313 313 314 315 316 317 317 317 318 319 320 322 324 326
300 300 300 300 300 300 300 301 301 302 302 303 304 304 305 305 305 306 306 307 308 308 308 308 309 310 311 311 311 311 311 311 311 311 313 316 319 320 319 319 318 317 317 316 315 314 313 312 311 310 310 309 308 308 307 307 307 307 307 307 307 307 308 309 310 310 310 310 309 309 309 310 310 311 312 312 313 313 314 315 316 318 319 321 323
298 298 298 299 299 299 299 300 300 301 302 303 303 304 304 305 305 305 306 306 306 307 307 307 308 308 309 310 310 310 310 311 311 310 311 313 317 318 318 317 317 316 315 314 313 312 311 310 310 309 309 308 307 307 306 306 306 307 306 306 306 307 307 307 308 308 308 308 307 307 307 307 307 308 308 309 310 311 312 313 315 316 318 319 321
296 296 297 298 299 299 300 300 301 302 302 303 303 303 303 304 304 304 304 304 305 305 306 306 306 307 307 307 307 307 308 309 310 311 311 312 315 317 316 315 314 313 313 312 311 311 310 309 308 307 307 307 307 306 306 306 306 306 307 306 306 306 306 307 307 307 307 306 306 305 305 305 306 306 307 308 309 310 312 313 315 316 318 319 320
295 296 297 298 299 300 300 301 301 302 302 302 302 302 302 302 302 302 302 303 303 303 304 304 304 305 304 304 305 305 305 306 308 310 311 313 314 314 313 312 311 311 310 309 309 309 308 307 306 306 305 305 306 305 306 305 306 306 306 307 307 307 307 306 306 306 306 306 305 305 305 304 305 306 307 308 308 309 311 313 315 317 318 320 321
295 296 297 298 298 298 299 299 300 300 300 299 300 300 300 300 300 300 300 300 301 301 301 302 302 302 303 304 304 304 304 304 305 306 308 309 310 310 310 309 309 309 308 307 307 307 306 305 305 304 304 304 304 304 304 305 305 306 306 306 306 306 306 305 305 305 304 304 304 304 304 304 304 305 306 308 309 310 311 313 315 317 318 320 321
295 295 296 296 296 296 297 297 297 297 297 297 297 298 298 298 298 298 298 299 299 299 299 300 300 301 302 302 303 303 303 303 303 304 305 306 306 307 307 307 307 306 306 305 305 305 304 304 304 303 303 303 303 303 303 304 304 304 304 304 304 304 304 303 303 303 302 302 302 303 303 303 304 305 307 310 311 312 312 313 315 317 318 320 320
294 295 295 295 295 295 295 295 295 295 295 295 295 295 296 296 296 297 297 297 298 298 298 298 299 299 300 301 302 302 303 303 303 303 303 304 304 305 305 305 305 304 304 304 304 303 303 303 302 302 302 302 303 303 303 303 302 303 303 303 303 303 302 302 302 302 302 302 302 302 303 304 304 306 308 311 313 313 313 314 316 317 318 319 319
293 293 294 294 294 294 294 293 294 293 293 293 294 294 294 295 295 295 296 296 297 297 298 298 298 299 300 300 301 302 303 303 302 302 303 303 303 303 303 303 303 303 303 302 302 302 302 301 301 301 302 302 302 302 302 302 302 302 302 302 302 301 301 301 301 302 302 302 302 303 304 304 305 307 310 312 313 313 314 315 317 317 318 318 319
Wind_Speed
29 30 30 30 30 29 27 28 26 23 20 21 21 21 20 20 20 19 19 19 18 17 18 20 19 18 17 17 18 18 18 17 16 15 14 14 14 14 13 12 13 13 13 13 13 12 12 12 12 12 11 11 11 10 10 9 9 9 9 10 12 11 11 10 9 12 18 18 17 17 15 15 15 15 16 17 17 17 16 15 15 16 16 16 17
28 29 29 28 28 28 27 27 27 25 22 21 22 22 21 21 20 19 19 19 20 19 18 19 20 20 18 17 17 17 18 18 16 15 15 15 14 14 15 14 15 15 14 14 14 12 13 13 13 12 12 12 12 11 11 11 11 12 12 12 13 12 12 13 12 12 17 20 20 19 18 17 17 17 18 19 20 21 19 17 16 15 16 17 18
29 29 28 28 28 27 26 26 27 27 25 23 24 23 23 21 20 20 19 18 19 19 19 18 19 20 19 19 17 17 18 18 17 16 16 16 15 15 15 15 16 16 16 16 15 14 14 14 14 13 13 14 13 12 12 12 12 13 13 13 14 14 13 15 13 12 15 19 20 19 19 19 19 20 20 21 22 22 21 19 18 18 18 19 21
28 28 28 28 28 27 27 27 27 28 27 26 26 25 24 22 20 20 19 18 19 19 19 19 19 20 20 20 20 19 20 20 19 18 18 18 17 16 16 16 17 17 17 17 17 17 16 16 15 14 13 14 15 15 15 15 14 14 14 14 14 15 15 15 15 14 15 17 19 20 19 19 21 22 22 23 23 22 22 21 21 22 22 21 21
26 27 28 28 28 28 28 29 29 29 29 28 27 26 25 24 23 22 21 21 20 20 20 20 20 21 21 21 21 21 21 22 21 21 20 19 19 19 18 18 18 18 17 17 17 17 18 18 18 16 15 16 17 17 17 17 17 17 17 16 16 16 16 16 17 17 16 17 20 21 20 20 22 23 23 23 24 24 24 24 24 23 23 22 21
23 25 26 27 28 29 28 29 29 30 29 29 28 27 26 25 24 24 23 22 22 22 22 21 21 22 22 22 23 22 22 22 23 23 22 21 21 21 21 21 20 20 19 18 17 17 18 19 19 18 18 19 20 20 19 18 17 17 18 18 17 17 17 17 17 18 17 18 20 21 22 22 23 24 24 23 23 24 26 27 26 25 25 24 23
23 25 26 27 29 28 28 27 28 29 29 29 28 27 26 25 24 23 23 22 23 24 24 24 23 22 22 23 24 24 23 23 24 25 24 23 22 22 22 23 23 23 22 21 19 19 19 19 19 20 20 21 21 21 20 19 18 17 18 18 18 18 19 19 19 19 19 19 20 21 23 23 23 24 25 25 24 25 24 23 24 26 27 27 26
28 29 27 27 29 29 28 26 26 27 27 27 27 27 26 25 24 23 22 22 22 23 24 25 24 24 24 24 24 25 26 26 26 26 26 25 24 23 23 23 24 24 24 23 22 22 21 20 20 21 21 22 22 22 21 21 20 20 20 20 20 21 22 22 22 22 21 21 21 22 23 24 24 26 27 26 25 25 23 20 21 26 28 27 28
27 27 24 24 25 25 26 26 24 23 24 24 25 25 25 25 24 23 22 21 19 19 20 22 23 23 24 25 25 26 27 28 28 28 28 28 27 26 26 25 25 25 25 25 25 24 24 23 22 22 22 22 22 23 23 22 22 23 23 22 22 23 24 24 24 24 23 22 23 24 23 23 25 26 26 26 26 25 25 22 23 26 27 26 28
20 19 17 18 19 18 21 24 24 22 21 21 22 23 23 24 24 23 22 20 19 18 18 18 18 20 21 22 24 25 27 28 29 29 30 30 30 29 29 28 27 27 27 27 27 27 26 25 25 24 23 23 23 24 24 23 23 23 23 23 23 24 25 25 25 25 24 23 24 24 22 23 27 27 26 28 28 27 26 25 24 26 26 24 27
12 9 7 11 15 16 18 20 20 20 19 19 20 20 21 22 22 22 22 21 20 20 20 19 18 18 18 19 21 22 25 27 29 30 31 31 31 32 31 31 30 29 29 29 29 28 28 27 27 26 26 26 26 26 26 25 25 25 25 24 24 25 26 27 27 27 26 25 25 25 22 24 28 29 28 30 30 28 27 25 23 23 23 20 20
9 8 7 5 8 11 12 12 12 12 13 14 14 15 17 18 18 19 20 21 20 20 21 21 21 20 18 17 18 19 23 25 27 28 29 30 31 33 33 32 31 30 30 30 30 30 29 29 28 28 28 28 28 29 28 28 28 28 28 27 27 27 28 29 29 29 27 26 26 26 25 26 28 29 29 29 29 27 26 24 22 22 22 20 19
12 11 11 8 5 4 6 7 6 6 7 8 8 9 11 12 14 15 17 18 19 19 20 20 21 21 21 19 17 16 19 22 24 26 27 28 29 32 33 32 31 31 31 30 30 30 30 30 29 29 29 29 29 30 30 30 30 30 30 30 30 30 30 30 30 29 29 28 28 29 29 28 29 30 29 29 28 26 25 25 25 23 22 22 24
14 12 11 9 7 5 5 6 6 6 6 5 5 5 5 5 6 8 10 13 15 16 16 17 18 19 20 19 17 15 14 17 20 23 25 26 27 29 31 31 31 31 31 31 31 31 31 30 30 30 30 30 30 31 31 32 32 33 33 33 33 33 33 33 32 32 32 32 32 32 32 31 31 32 31 30 29 28 28 28 27 26 26 26 27
17 14 13 12 11 9 8 8 6 6 6 6 5 5 4 3 3 3 3 5 7 9 10 12 14 15 16 16 15 14 13 12 14 17 20 22 23 25 27 28 29 30 31 31 31 32 32 31 30 31 31 32 32 32 32 32 32 33 34 35 35 36 35 35 34 34 35 35 35 35 34 33 33 33 33 31 31 31 30 29 28 27 27 27 28
20 17 16 15 13 11 10 10 9 8 7 7 7 7 6 4 2 1 2 2 2 3 4 6 8 10 12 12 13 13 13 12 11 11 12 14 15 17 20 23 25 26 28 29 30 31 31 31 31 32 33 34 34 33 33 33 32 32 33 35 36 37 38 38 36 35 36 35 35 35 34 33 33 33 33 31 31 32 30 28 28 27 25 24 25
19 18 18 17 15 13 12 11 11 11 10 10 10 9 8 7 6 4 2 2 2 2 2 3 4 5 7 9 10 12 12 13 12 11 11 10 11 12 14 16 18 20 22 23 24 25 25 26 26 27 29 30 29 29 30 31 32 34 34 35 36 36 38 39 38 37 37 35 35 34 34 33 33 33 33 31 30 31 29 28 28 27 24 19 19
18 17 17 16 14 14 14 15 14 14 14 14 13 10 8 7 6 6 5 5 3 2 3 3 3 4 5 6 7 8 9 10 10 10 10 10 11 12 13 14 16 17 19 19 20 21 22 22 23 23 25 26 26 27 27 29 32 34 34 34 34 35 38 39 38 38 37 35 34 34 32 32 32 32 32 30 28 29 30 31 30 27 23 20 19
17 16 14 14 14 14 14 15 15 15 16 17 15 14 12 9 7 6 5 5 5 4 3 3 3 3 3 4 4 5 6 6 7 7 8 9 10 11 12 14 16 17 18 19 20 20 21 22 22 22 23 24 25 25 26 27 29 31 32 31 31 34 37 38 35 35 35 33 32 31 31 31 32 31 30 29 27 27 29 30 29 27 26 25 24
16 14 12 12 13 14 14 14 15 17 18 17 15 15 14 12 8 5 4 3 4 4 3 2 2 3 3 3 4 5 5 5 6 7 8 9 10 10 11 13 14 16 17 17 18 19 19 19 19 19 19 20 21 22 23 23 24 26 28 29 30 33 35 34 30 29 28 28 29 30 30 31 31 31 31 30 29 28 28 28 28 28 28 28 28
14 13 12 12 12 14 14 15 16 17 17 16 15 15 15 14 9 5 3 2 2 4 3 3 2 3 3 4 3 2 2 3 4 5 6 7 8 9 10 11 12 13 14 15 16 17 17 18 17 17 17 18 19 20 21 22 23 24 26 27 28 30 31 31 31 29 28 28 30 31 32 32 33 33 33 32 30 29 29 28 28 28 28 29 29
13 13 13 13 12 13 14 14 15 16 16 16 16 16 17 18 16 12 9 8 7 5 3 2 3 5 6 7 7 5 4 6 6 7 6 6 7 7 8 9 9 10 12 13 13 14 15 16 16 16 16 16 17 18 18 19 21 23 25 26 27 28 28 29 30 30 30 31 31 31 32 33 34 35 34 33 31 30 29 29 28 28 29 29 29
13 13 13 14 13 13 13 14 14 15 15 16 16 17 17 19 19 18 16 15 14 12 10 9 8 7 7 8 9 7 6 6 6 7 7 8 8 9 9 10 9 9 10 11 12 13 14 15 17 18 18 18 19 19 19 19 20 22 24 24 26 28 30 32 33 32 31 31 30 31 33 33 33 34 35 34 33 31 30 29 29 29 29 30 30
12 13 13 14 14 13 13 13 14 15 15 15 15 16 17 18 18 19 18 16 15 14 13 11 9 9 9 10 10 9 8 7 7 8 9 10 9 9 9 10 10 10 11 12 14 15 17 19 20 21 22 22 22 23 23 23 23 23 24 24 24 25 28 31 33 30 28 29 30 31 32 32 32 32 34 35 33 32 31 30 30 30 31 31 32
12 13 14 14 14 14 13 13 14 15 15 15 16 17 18 18 19 19 18 17 17 15 14 13 12 11 11 12 12 11 10 8 8 9 11 12 12 12 12 12 13 13 14 15 16 18 19 20 21 21 22 23 23 24 25 26 26 26 26 25 24 24 25 27 27 25 23 25 27 28 29 31 32 31 32 33 33 33 33 32 32 31 31 31 32
13 14 14 14 15 15 14 14 15 15 15 15 16 16 17 18 18 18 18 18 17 16 15 15 15 14 14 14 15 14 12 11 10 11 12 13 14 15 17 17 17 17 17 18 19 20 20 21 22 22 22 22 23 23 24 25 25 25 25 24 23 24 24 23 22 21 23 27 29 30 32 33 33 33 34 34 34 35 33 32 33 32 29 28 29
14 14 14 14 14 15 15 16 16 16 16 16 16 16 16 16 17 17 17 18 17 16 16 16 16 16 17 17 17 16 15 14 13 13 14 15 16 18 19 20 20 20 20 20 21 23 23 23 23 22 21 21 21 21 22 23 23 23 23 22 22 22 22 20 19 23 29 34 35 34 34 34 35 36 35 33 34 34 32 30 30 30 28 25 25
14 14 14 13 13 14 14 16 17 17 17 17 17 17 16 16 16 15 16 17 17 17 17 16 15 15 17 18 18 18 17 16 16 15 16 17 19 19 20 21 21 21 21 22 24 24 24 22 20 19 19 19 20 21 21 22 22 22 23 22 22 21 20 19 20 24 29 32 32 33 34 35 35 35 32 30 31 33 30 28 28 28 27 24 23
13 13 14 13 13 13 13 14 15 16 17 16 16 15 14 14 14 14 12 12 13 15 16 16 14 14 15 16 17 18 17 16 16 15 15 17 19 20 21 22 22 21 22 23 23 22 19 18 17 18 18 19 19 20 21 21 21 22 23 22 21 20 20 22 25 26 27 27 29 30 31 32 32 31 28 27 30 31 28 26 26 26 25 23 24
12 12 13 13 14 14 14 14 13 14 15 15 15 15 14 12 12 12 12 11 10 11 13 14 13 14 15 15 14 15 17 17 16 16 16 17 19 21 22 21 21 21 21 19 18 17 16 17 18 18 18 19 19 19 19 19 20 21 22 22 21 20 20 24 26 27 27 28 28 28 29 29 30 30 27 27 29 30 27 25 25 24 23 23 24
13 13 13 13 15 16 16 15 14 14 14 14 15 16 17 16 13 12 12 13 12 11 11 12 11 12 15 16 15 15 16 16 17 18 19 19 20 21 21 21 20 19 17 15 14 15 16 16 17 18 18 18 18 18 18 19 19 19 20 21 21 20 21 23 25 27 28 28 28 28 28 29 30 30 29 28 28 29 28 27 25 23 23 23 24
13 13 13 14 15 17 17 16 15 15 14 14 15 16 18 20 19 17 16 15 15 14 14 13 12 11 12 15 17 17 16 16 18 19 19 19 20 20 20 20 18 15 13 12 13 15 15 15 16 17 17 17 17 17 18 19 19 20 21 21 20 21 21 22 24 25 27 28 28 28 28 28 29 30 30 28 28 28 28 27 25 23 24 24 25
12 12 13 14 14 15 16 16 16 15 14 14 14 15 16 17 19 21 20 18 16 15 14 14 14 14 13 13 15 16 16 16 17 18 18 20 20 19 16 14 12 10 10 11 12 13 13 13 13 14 15 16 18 20 20 21 22 22 22 22 22 24 25 25 25 25 25 25 26 28 28 28 28 29 28 27 26 26 26 27 26 24 24 24 25
12 11 12 13 13 14 15 16 16 16 15 14 14 14 14 15 16 18 20 20 18 17 15 13 13 14 15 15 15 15 14 14 15 17 19 21 21 18 13 8 7 7 9 10 10 10 10 11 11 13 15 18 20 22 23 25 25 24 24 24 25 27 28 27 26 25 24 24 25 25 26 27 27 27 26 26 24 24 24 24 24 24 24 24 24
14 12 11 11 12 13 13 15 16 16 16 15 15 14 14 15 15 16 17 18 18 18 18 16 15 14 14 16 16 14 14 15 17 19 20 20 20 17 13 10 9 10 10 9 9 9 9 10 12 14 16 18 20 21 22 24 25 25 24 24 26 28 28 28 27 26 26 26 26 25 25 26 26 24 24 24 23 22 21 22 23 23 23 23 24
17 15 13 12 12 13 13 14 15 16 16 15 15 15 15 14 15 15 15 16 16 17 18 18 18 16 16 15 14 14 15 17 19 20 20 20 19 16 13 11 11 11 10 11 11 11 11 11 12 14 17 19 21 22 22 22 23 23 23 23 25 26 26 26 27 28 29 29 28 27 26 26 25 23 22 22 22 21 21 21 21 22 24 24 24
17 15 14 13 14 14 14 15 16 17 16 15 15 16 15 14 13 14 15 15 16 16 17 18 18 18 17 16 14 15 16 17 17 18 18 18 16 13 10 9 9 10 11 12 14 14 14 14 14 16 18 20 22 23 24 24 24 23 23 23 24 25 25 26 27 27 28 29 29 28 26 26 26 24 22 21 20 20 19 19 19 21 23 24 24
14 13 13 14 15 15 15 17 17 16 16 16 16 16 15 13 13 14 15 15 16 16 17 18 18 18 18 18 18 18 19 18 17 17 15 13 11 10 9 10 10 11 12 13 14 15 16 17 18 20 21 22 23 24 25 25 25 25 25 25 26 26 26 26 25 26 27 28 29 29 28 26 26 24 22 21 20 19 19 20 19 20 21 22 22
12 12 13 14 14 15 16 16 15 15 16 17 16 15 13 13 14 15 15 16 16 16 17 17 17 17 19 21 21 21 21 22 21 19 16 13 11 11 12 14 14 14 13 14 14 15 17 19 21 23 24 25 25 25 25 24 24 25 25 26 27 28 27 26 25 25 26 28 29 30 29 28 26 24 23 22 22 21 21 21 21 21 21 22 22
11 12 12 13 14 16 16 14 13 14 16 16 14 14 15 15 16 16 16 17 16 16 16 16 17 18 20 21 21 22 23 23 23 21 19 16 15 16 17 18 17 16 15 16 16 17 18 19 21 23 25 25 25 25 25 24 23 24 25 25 27 28 28 27 26 25 25 26 28 29 29 29 28 27 26 24 23 22 23 23 23 23 22 23 24
11 11 11 12 13 14 13 12 13 14 14 14 14 15 17 18 17 17 17 16 16 16 16 17 18 18 20 21 21 22 23 24 24 23 22 21 20 19 19 18 17 17 17 17 17 18 19 21 22 23 24 24 24 24 24 24 23 23 24 25 25 27 28 28 26 24 24 25 26 28 29 29 29 28 29 29 28 27 26 24 24 23 23 24 25
11 11 11 11 12 12 12 12 13 13 14 14 15 16 17 17 17 16 16 16 16 17 18 18 19 19 20 21 22 22 23 24 24 23 23 22 21 20 18 17 17 17 18 18 18 19 21 23 24 24 24 24 24 24 24 24 24 24 24 25 25 26 28 28 28 26 24 23 25 26 28 30 30 30 29 29 29 28 27 26 26 26 25 25 26
10 11 11 11 11 12 12 12 13 13 13 14 14 14 14 15 15 16 17 18 18 18 18 19 20 20 21 21 22 23 24 25 24 24 24 23 22 21 19 18 18 18 19 19 19 20 22 24 25 26 25 25 25 25 24 24 25 25 26 26 27 27 27 28 28 27 24 23 25 26 27 28 30 30 29 28 27 27 27 27 27 27 26 25 25
9 10 11 11 11 11 12 12 12 13 13 13 13 14 14 15 16 17 18 18 17 16 17 19 20 20 21 21 21 23 25 26 26 25 25 24 23 21 20 19 19 19 19 19 20 21 23 25 26 27 28 28 28 27 26 25 25 25 26 27 27 28 28 28 27 27 26 25 27 29 29 28 28 29 30 30 30 29 29 28 26 26 26 26 26
10 10 10 11 11 11 11 11 11 12 12 13 13 14 14 15 16 17 17 17 17 17 18 19 20 20 20 20 21 23 25 26 27 27 27 26 24 23 22 21 20 20 20 20 21 22 23 24 26 29 31 32 31 30 28 26 24 24 25 26 26 28 29 29 28 28 27 27 29 31 32 31 31 31 32 32 32 31 31 30 28 27 26 26 26
11 9 8 9 9 10 10 10 10 12 12 13 14 14 15 15 16 16 16 17 18 18 19 19 19 19 21 22 23 24 25 26 27 29 29 28 26 24 22 20 20 20 20 21 22 23 24 25 27 29 30 32 32 32 30 27 24 23 24 25 26 28 29 29 29 29 30 30 31 32 34 35 36 36 35 33 31 31 32 31 30 29 27 27 28
7 6 7 8 8 9 10 10 10 11 12 12 13 14 14 15 16 16 17 18 18 18 19 19 20 21 23 24 24 24 25 27 27 27 26 25 22 20 19 19 20 21 22 22 22 23 25 26 27 28 29 30 30 29 28 26 25 25 25 26 27 29 30 30 30 31 32 34 35 35 36 37 39 40 39 36 32 30 30 30 30 29 27 27 28
7 7 7 7 8 9 9 10 10 11 12 13 13 14 15 16 16 17 17 18 18 19 20 22 23 24 25 24 24 25 26 27 27 26 24 22 20 20 20 22 23 23 24 24 24 25 26 27 27 28 29 29 28 27 27 27 26 26 27 27 29 30 31 32 33 35 37 38 39 40 40 40 40 40 40 39 35 32 30 30 30 29 28 28 28
7 7 7 7 8 9 9 10 10 11 12 13 14 15 15 16 16 16 17 18 19 21 23 24 25 26 26 26 25 25 25 26 26 25 25 24 24 23 23 24 24 24 25 26 26 26 27 27 28 28 29 29 28 27 26 26 26 26 28 29 30 31 33 35 37 39 39 40 41 41 41 41 40 39 38 38 37 35 33 31 30 30 30 29 29
7 7 7 7 8 8 9 10 10 11 12 13 14 14 15 16 17 18 19 20 21 22 23 24 25 26 27 27 26 25 25 25 26 26 25 25 25 25 25 25 25 26 26 26 26 27 27 28 29 29 29 29 28 27 26 25 26 27 29 31 32 34 36 37 38 38 38 37 38 38 38 38 38 38 37 36 34 33 31 30 30 30 30 29 28
8 7 7 7 8 8 9 10 11 12 13 13 13 14 15 16 18 20 20 20 21 22 23 24 26 26 27 27 26 25 24 25 25 25 25 25 25 25 25 25 26 26 27 27 28 27 27 28 28 28 28 27 27 26 26 26 27 29 31 33 34 36 36 36 36 36 35 34 33 34 35 35 36 36 35 34 31 30 29 29 29 29 28 26 24
Wind_Direction
204 206 209 210 213 216 218 219 220 223 225 226 227 227 228 227 227 230 231 230 231 235 239 241 241 243 244 240 237 236 236 236 236 237 241 245 247 247 248 252 258 258 256 255 257 261 270 278 275 270 278 290 289 283 284 286 286 286 284 287 297 302 296 284 274 288 302 309 312 316 321 321 320 327 332 331 332 334 331 325 321 318 315 313 314
204 207 209 209 212 216 219 219 219 221 224 226 228 229 231 233 234 239 241 238 235 237 243 246 246 247 248 244 238 235 233 234 235 236 239 244 247 248 248 252 257 256 254 255 255 257 265 274 275 268 272 283 287 281 279 284 288 288 284 284 292 299 299 294 283 279 291 302 308 311 315 317 317 321 327 327 328 331 331 328 326 321 318 318 317
205 207 209 210 213 215 219 220 219 220 223 226 228 230 232 234 237 240 245 244 239 238 245 252 253 253 252 247 243 240 238 237 238 238 240 244 247 250 251 253 255 256 256 255 254 256 262 269 271 268 269 275 279 278 276 279 286 290 289 287 289 294 299 300 291 277 282 295 304 308 312 315 314 318 322 322 323 324 323 323 322 318 317 319 320
205 207 209 211 213 214 217 218 219 221 225 227 229 231 233 235 236 239 244 245 242 240 245 252 255 257 257 252 250 250 248 245 245 245 247 248 249 251 254 254 256 259 259 259 258 260 265 269 269 270 272 274 275 277 276 276 280 285 287 288 291 294 296 297 294 288 284 288 297 304 309 311 312 314 317 317 319 319 318 318 319 318 321 323 322
204 206 208 211 213 215 216 217 217 218 222 228 231 232 234 235 237 239 242 244 245 244 245 249 252 256 258 258 257 257 256 254 253 254 255 255 253 254 257 259 259 261 263 265 266 267 269 270 270 270 274 276 277 280 282 280 278 279 280 281 287 292 293 292 291 290 286 284 292 300 304 306 307 310 312 313 315 317 317 318 320 322 324 325 322
199 203 205 209 213 216 217 218 218 218 220 225 229 233 235 236 238 240 241 244 246 247 246 247 250 253 255 258 259 260 259 257 256 258 260 259 258 257 258 260 262 263 264 266 269 273 274 274 273 271 272 275 278 281 285 284 280 278 279 279 283 287 288 287 287 287 285 285 288 292 297 299 301 305 309 310 310 311 314 318 322 326 326 325 323
200 206 207 209 213 215 216 218 220 220 222 224 227 230 232 235 238 240 242 246 250 252 250 248 250 252 254 256 259 260 259 257 256 257 258 259 259 259 258 260 262 263 263 264 266 270 274 276 277 276 276 278 279 280 282 282 281 280 280 281 283 285 285 285 286 285 284 285 285 286 290 293 295 298 303 306 305 305 308 310 316 324 327 326 324
207 211 209 210 215 216 216 219 220 221 223 225 226 228 230 231 234 237 240 245 251 253 253 252 251 252 255 258 260 260 259 257 257 256 257 258 258 258 259 259 261 263 263 264 265 266 269 272 275 277 279 280 281 280 279 279 279 279 280 282 282 283 283 284 285 285 283 282 281 282 284 287 289 292 296 299 299 302 307 306 305 313 320 322 322
213 215 210 210 216 218 217 218 219 220 221 223 226 227 229 230 230 232 235 239 243 247 249 250 251 252 255 258 260 261 260 259 258 259 259 259 259 259 258 258 260 262 263 265 266 266 268 269 271 274 278 281 283 283 282 281 279 279 281 283 283 283 284 284 284 284 282 280 279 280 282 283 286 289 291 293 295 298 304 303 301 307 313 314 318
220 223 222 221 224 228 226 221 219 220 221 223 226 226 227 228 228 229 231 233 236 237 238 241 245 249 253 257 259 260 260 259 260 260 261 262 262 261 260 260 261 262 264 266 267 268 269 270 271 273 275 278 280 281 282 282 281 280 282 283 283 283 283 282 282 282 281 279 279 281 280 280 285 287 287 291 295 295 297 298 300 306 310 311 316
207 213 224 230 232 237 238 230 223 223 225 226 228 228 230 231 232 231 232 234 236 238 239 240 242 247 252 256 260 262 261 261 261 261 262 264 264 262 261 261 262 262 263 265 267 269 271 272 273 274 275 276 278 278 279 279 279 279 279 280 280 280 280 278 278 279 278 275 277 278 275 275 283 287 287 289 293 292 294 296 297 300 305 306 307
142 129 125 174 220 234 239 232 219 215 221 226 228 230 233 236 237 236 235 237 240 242 243 243 245 248 251 255 260 262 262 263 263 263 264 264 265 263 260 259 260 261 263 264 266 269 271 273 275 275 276 278 279 280 279 279 278 276 276 276 277 277 277 276 275 276 275 272 272 274 273 274 280 285 287 288 290 291 291 292 292 293 295 294 290
96 99 109 135 167 201 216 213 197 188 200 214 222 227 233 237 238 239 238 239 240 242 244 244 244 245 246 248 255 262 264 263 262 262 262 263 263 263 260 258 258 260 262 264 267 269 271 274 276 277 279 281 281 282 281 281 281 279 278 276 275 276 276 275 274 273 272 271 270 271 276 277 276 281 288 289 287 287 286 286 289 289 288 289 289
69 71 82 99 106 113 138 153 153 153 160 169 178 188 200 215 228 238 242 243 244 245 245 245 244 244 244 244 246 254 262 264 263 261 260 260 260 260 261 260 259 260 261 263 266 268 270 273 274 277 281 282 283 283 283 284 284 283 282 280 278 278 277 276 275 273 274 273 271 273 279 281 279 283 290 290 284 283 283 284 287 287 286 287 289
60 61 65 69 71 71 72 78 89 110 127 134 134 134 140 157 185 208 227 243 251 251 249 246 244 244 245 244 243 244 249 256 260 261 261 260 259 259 259 260 260 260 261 262 263 266 268 270 272 276 280 282 284 284 284 284 284 283 283 282 281 281 280 279 278 277 278 279 277 278 282 284 284 287 291 290 286 286 286 284 284 284 285 286 288
53 55 58 58 58 56 54 51 49 58 81 97 93 88 86 79 68 239 231 233 241 249 249 245 243 243 244 245 246 244 246 248 251 255 259 261 261 259 258 259 259 260 261 262 264 265 268 270 272 274 277 279 281 282 283 283 282 280 280 280 280 280 280 280 280 279 279 280 280 281 283 285 287 288 289 289 287 288 286 281 280 280 280 282 285
46 48 53 54 50 45 47 48 45 46 52 61 65 62 60 59 48 27 355 306 272 255 249 242 240 243 245 248 249 249 249 251 253 256 258 259 259 257 257 257 257 258 260 262 265 266 269 271 273 274 276 277 280 283 284 283 281 278 276 276 276 276 277 280 281 280 280 279 279 281 282 285 287 287 287 287 285 285 279 272 276 278 275 275 279
48 49 55 57 54 48 47 47 48 47 43 42 44 39 39 44 31 18 13 359 337 298 273 262 246 242 244 248 250 251 252 251 251 253 256 258 258 257 259 261 262 263 265 266 268 270 272 274 277 279 280 283 286 288 289 286 282 279 277 275 275 274 275 278 280 280 280 280 280 281 283 286 288 288 287 286 285 283 275 271 276 277 270 267 271
48 50 52 53 50 47 45 43 42 37 28 26 30 31 29 26 16 5 357 352 347 333 303 288 281 276 270 260 251 252 255 252 249 251 253 258 262 263 266 268 269 271 273 274 274 274 275 276 279 280 283 287 289 290 290 289 286 283 280 277 274 274 276 279 279 280 281 281 282 283 285 289 291 291 288 287 285 283 277 276 278 274 266 267 270
40 42 42 40 38 37 36 33 29 26 20 17 20 23 20 15 11 6 357 343 333 327 323 320 326 336 330 308 281 266 267 269 272 276 274 270 271 272 271 272 274 277 279 278 278 278 279 280 283 287 292 295 297 296 295 295 293 290 285 277 271 273 278 280 280 280 281 281 282 284 286 288 289 288 287 286 285 283 281 279 278 273 268 268 268
31 31 28 25 23 22 22 20 18 19 19 15 16 24 29 28 24 14 6 10 347 331 325 326 347 19 32 21 9 347 334 347 347 336 320 303 293 287 284 284 286 286 285 284 285 288 291 294 299 304 306 305 304 303 302 301 298 292 287 282 278 277 278 278 279 279 280 281 282 284 284 285 286 286 284 283 284 284 283 281 279 277 271 268 267
23 23 23 21 16 13 15 16 17 20 22 23 28 37 41 42 43 47 58 66 60 44 28 36 63 76 64 47 42 43 33 24 22 23 18 2 345 334 326 320 310 299 295 297 301 305 308 310 313 314 311 306 304 305 306 304 298 291 289 287 284 281 280 279 281 283 284 285 286 286 285 285 284 284 283 282 283 284 284 284 284 281 277 273 270
19 21 24 25 21 19 19 20 22 23 24 28 35 38 35 34 38 45 53 60 64 63 60 61 68 66 44 34 35 30 22 22 22 21 17 9 1 358 355 349 339 325 317 318 321 323 322 320 317 314 310 307 304 303 302 300 298 298 297 294 288 283 280 280 282 286 288 289 289 288 286 284 282 282 281 282 283 285 285 286 286 284 281 279 276
25 25 26 27 25 22 21 21 21 20 20 22 27 28 25 24 27 31 35 40 46 48 43 40 39 28 16 16 20 19 15 20 21 13 5 358 354 354 354 353 348 340 333 329 327 325 321 317 314 312 310 307 304 301 297 296 296 297 299 299 297 292 286 281 280 284 289 289 287 285 284 284 283 282 282 284 286 287 285 284 283 281 279 279 278
29 27 23 22 19 16 17 19 15 12 13 17 20 21 20 20 21 23 24 27 29 28 25 23 20 15 9 6 4 4 4 2 1 3 4 1 358 358 357 353 347 339 333 328 325 324 321 318 315 314 312 310 308 305 301 299 299 298 296 295 294 295 293 286 279 281 287 287 283 281 280 280 279 280 284 288 288 285 282 280 280 279 277 276 276
22 22 19 16 12 10 13 16 12 8 8 11 13 15 16 16 16 17 19 21 21 19 15 11 8 4 1 357 353 350 349 345 343 349 354 352 350 350 348 344 341 337 334 332 330 328 325 322 321 320 319 318 317 314 311 309 307 304 300 298 297 298 299 293 283 277 276 274 272 271 272 274 276 278 283 287 285 282 281 280 280 279 277 276 276
8 11 12 10 7 5 6 7 7 5 5 4 2 3 6 7 7 9 10 9 8 6 3 1 0 357 353 349 345 341 339 338 336 338 340 338 338 338 337 335 334 333 333 333 332 330 327 325 324 323 324 325 325 324 323 322 320 317 313 312 311 308 306 300 285 270 265 263 264 267 271 274 277 279 282 283 281 281 281 281 280 279 279 278 276
358 0 2 2 2 2 1 359 358 358 358 357 356 358 0 1 359 359 1 360 355 351 350 350 352 351 346 343 342 339 338 340 340 338 336 334 332 331 331 331 331 331 333 333 332 331 330 328 330 333 336 337 337 337 337 335 333 331 328 325 322 315 307 296 281 270 267 267 270 273 275 275 276 277 280 280 280 281 282 281 280 280 280 276 270
350 351 354 357 358 358 358 357 355 353 351 349 350 353 356 358 355 351 352 354 351 348 345 343 341 338 336 339 341 339 341 346 346 341 336 333 330 327 327 329 331 331 333 333 334 336 339 343 349 353 353 348 343 340 340 339 335 332 329 326 322 316 304 291 281 276 276 277 276 277 277 277 278 280 281 280 280 283 284 281 279 279 277 270 263
359 355 355 358 359 356 355 354 354 353 350 347 346 344 343 347 355 355 352 347 343 343 341 337 331 325 323 330 337 337 336 338 336 333 329 325 322 320 320 324 328 331 334 336 341 349 356 359 360 356 351 346 340 334 332 331 328 326 324 322 318 312 303 294 289 286 284 281 279 280 282 282 282 283 283 281 282 285 286 283 279 275 270 263 261
8 5 2 2 0 356 353 349 348 348 348 348 347 343 338 335 337 342 344 339 333 332 330 328 325 320 317 320 325 326 327 330 331 332 329 322 317 313 313 317 324 330 335 341 353 4 6 1 356 351 347 344 341 336 331 329 326 324 323 320 316 311 305 300 297 294 289 286 285 287 287 285 283 284 284 283 284 286 286 284 279 273 268 264 262
3 3 4 2 359 357 356 355 352 348 345 344 343 341 338 335 330 329 331 331 328 326 322 320 321 321 319 321 321 319 319 324 329 331 331 328 322 314 309 312 319 328 337 348 3 12 11 3 359 359 357 354 352 351 348 346 344 341 338 334 329 324 320 317 313 305 295 290 289 289 288 287 285 284 285 284 284 285 286 284 280 274 270 267 265
356 355 358 358 357 360 2 2 360 356 353 349 344 340 337 334 330 328 329 330 329 326 320 315 313 314 316 321 323 318 311 312 322 330 335 337 335 328 319 314 316 325 341 357 10 18 16 10 9 9 2 353 350 349 347 345 344 342 339 335 329 326 326 328 328 324 314 304 297 293 291 290 287 285 286 286 285 284 284 284 283 279 274 270 268
355 351 350 353 358 2 3 0 357 354 353 352 349 345 341 337 332 328 327 328 330 330 330 326 318 311 308 309 316 320 316 313 320 328 332 336 338 340 338 335 333 339 352 5 14 15 10 6 3 358 351 345 342 339 335 332 330 328 326 323 320 319 320 323 326 328 327 320 312 305 300 296 292 288 288 289 288 286 284 284 283 280 275 271 271
351 346 342 347 356 358 354 351 349 347 345 346 346 344 341 338 335 330 326 324 324 325 329 334 334 328 318 312 312 315 317 319 322 325 327 329 330 331 333 337 345 354 1 6 5 0 354 351 349 348 346 343 340 337 332 328 324 321 318 316 315 315 317 319 320 322 323 321 317 313 308 302 297 294 293 292 290 288 285 284 283 282 279 277 277
345 341 337 341 347 346 342 341 340 338 339 340 338 336 334 333 333 332 330 328 324 322 324 329 332 332 328 325 322 319 316 317 317 317 316 316 317 319 322 329 340 349 353 352 349 346 344 342 342 344 344 343 341 338 333 329 325 321 318 315 312 311 313 315 315 316 317 318 317 316 314 308 301 297 297 296 292 288 286 285 286 287 285 283 281
342 339 336 336 336 333 329 327 326 328 330 329 329 329 330 330 328 328 328 327 325 323 323 326 329 328 326 327 330 330 326 321 316 311 308 304 303 307 318 330 338 339 338 339 339 338 337 337 337 339 340 340 339 337 332 328 324 321 318 315 312 309 309 310 311 312 313 313 315 315 315 312 305 300 299 301 299 296 296 295 293 291 289 286 281
342 338 336 333 330 328 325 321 319 319 321 321 323 327 327 325 324 324 323 323 323 322 322 325 327 326 324 323 324 325 325 322 319 318 315 305 295 300 315 325 328 325 324 327 329 329 330 331 332 333 334 334 334 333 330 326 322 319 317 315 312 310 310 311 312 312 311 311 313 315 314 313 309 305 304 305 305 304 304 304 301 296 293 290 284
343 341 338 332 327 327 326 322 318 316 316 318 321 324 324 322 322 322 322 322 320 319 319 321 321 321 323 325 325 326 324 320 317 318 316 304 294 298 306 309 310 311 313 316 318 320 321 323 325 327 329 329 329 328 325 322 318 315 314 313 312 311 311 312 312 312 312 311 313 313 313 313 311 309 306 305 305 304 304 304 302 298 293 289 285
344 342 337 330 328 327 325 320 314 314 316 317 318 321 323 323 321 319 318 317 315 313 313 315 316 318 322 325 327 328 325 319 315 311 303 292 286 289 293 295 297 300 303 307 310 313 316 319 322 323 324 323 324 323 320 316 313 310 308 308 309 309 309 309 309 309 310 311 311 311 311 311 310 310 308 305 304 303 303 301 300 298 295 291 288
343 340 332 327 327 326 322 316 313 315 316 315 315 318 319 318 315 314 313 313 312 312 312 311 312 316 319 321 324 325 323 320 318 313 303 291 283 281 282 285 288 291 297 302 306 309 313 317 318 318 318 319 319 318 316 313 308 305 303 302 303 305 306 306 306 306 307 308 309 308 308 309 309 309 307 305 305 305 303 301 298 296 294 293 292
340 335 327 323 323 321 317 313 312 313 314 312 312 313 313 312 313 314 314 314 313 313 312 310 311 314 316 317 320 321 321 320 320 317 310 298 284 276 274 277 281 286 294 299 303 306 311 315 315 314 314 315 315 315 313 311 308 304 300 298 297 298 300 302 303 304 305 306 306 305 306 308 309 308 307 305 305 305 303 301 299 296 293 290 289
335 328 321 318 316 314 311 309 308 310 310 309 309 310 310 310 311 312 310 309 309 309 309 311 312 314 314 315 317 318 318 318 318 317 314 304 289 276 271 273 277 285 291 294 298 305 310 312 313 312 312 312 313 311 310 308 307 304 300 296 294 293 294 297 300 302 304 305 305 304 304 305 306 306 306 305 304 303 302 301 299 297 294 291 288
333 325 317 312 311 309 308 307 305 305 305 305 306 307 307 306 306 307 306 306 308 310 313 315 315 315 315 316 317 316 315 315 315 315 315 307 291 275 270 275 280 284 288 291 297 305 309 309 310 311 311 310 310 309 307 307 305 302 299 296 293 290 290 292 295 298 300 303 304 304 303 303 302 301 301 301 301 301 300 298 296 295 293 291 289
327 319 310 306 306 306 304 303 302 301 302 303 304 304 304 305 308 309 309 308 308 310 312 313 314 316 317 319 320 318 315 313 310 310 312 309 295 279 274 279 281 282 286 293 299 304 306 307 308 308 308 308 308 308 307 306 302 299 298 297 293 291 290 291 294 297 299 300 302 303 303 302 300 298 297 298 297 296 294 293 292 291 289 288 286
325 321 311 305 304 303 302 301 300 300 302 304 305 307 309 311 313 313 311 308 308 309 310 313 316 318 318 320 321 321 320 317 311 306 305 304 294 281 276 278 282 285 290 296 301 304 306 306 307 307 307 307 307 307 306 304 300 297 296 297 296 295 295 296 297 298 299 299 300 302 302 302 300 299 298 297 295 292 289 288 286 285 285 284 284
346 342 325 311 307 306 306 304 303 305 310 312 311 310 311 312 313 313 311 310 310 310 311 315 317 317 316 316 317 318 320 321 319 314 306 299 290 283 283 289 294 296 299 300 302 305 307 307 308 308 308 307 306 304 302 301 299 296 296 296 297 298 300 300 299 298 298 298 299 300 301 301 300 299 298 298 295 290 286 284 283 281 281 280 280
8 349 333 324 320 315 313 310 308 313 321 320 313 308 307 307 308 309 309 309 309 308 309 312 313 312 311 312 313 313 315 318 320 320 316 310 305 303 303 303 304 303 303 304 306 307 308 308 308 308 308 307 306 302 300 299 299 299 300 300 300 300 301 301 299 297 297 296 296 296 296 297 296 295 295 295 293 289 283 280 280 280 280 279 279
4 345 335 332 327 321 318 317 315 318 321 318 311 307 307 306 305 306 307 307 307 308 309 310 310 310 309 309 309 310 312 313 314 315 315 314 313 311 308 306 305 304 303 305 306 307 308 308 308 308 308 307 304 302 301 302 302 302 303 303 302 301 301 299 297 296 295 294 293 292 292 292 292 291 290 290 291 289 283 278 277 278 279 278 278
359 346 339 334 331 327 323 321 320 319 318 314 310 308 308 306 306 307 307 307 306 307 308 309 309 309 309 308 307 307 308 309 310 311 311 310 310 309 308 307 306 305 305 306 307 307 307 307 307 308 308 308 306 304 303 303 302 302 302 303 303 303 303 301 299 298 297 295 294 292 290 289 289 288 287 287 288 287 283 277 275 275 276 276 278
356 351 343 334 332 331 326 322 322 322 319 314 311 309 309 309 309 308 308 307 306 307 308 308 308 309 309 309 307 305 305 306 308 309 309 309 309 308 308 307 306 306 307 307 307 307 307 307 308 310 311 310 308 305 302 301 300 301 302 304 306 307 306 305 303 302 301 299 296 292 289 287 286 284 283 283 284 283 280 276 274 274 274 274 274